Time,TemperatureF,DewpointF,PressureIn,WindDirection,WindDirectionDegrees,WindSpeedMPH,WindSpeedGustMPH,Humidity,HourlyPrecipIn,Conditions,Clouds,dailyrainin,SoftwareType,DateUTC
2013-06-03 00:00:00,64.2,61.5,29.87,West,280,0.0,2.0,91,0.00,,,0.00,LWC V2.10 B1702,2013-06-03 04:00:00,
2013-06-03 00:01:00,64.2,61.5,29.87,SW,229,3.0,4.0,91,0.00,,,0.00,LWC V2.10 B1702,2013-06-03 04:01:00,
2013-06-03 00:06:00,64.1,61.4,29.87,WSW,241,0.0,2.0,91,0.00,,,0.00,LWC V2.10 B1702,2013-06-03 04:06:00,
2013-06-03 00:11:00,64.1,61.4,29.87,SSW,210,0.0,1.0,91,0.00,,,0.00,LWC V2.10 B1702,2013-06-03 04:11:00,
2013-06-03 00:16:00,64.1,61.7,29.87,SSW,195,2.0,2.0,92,0.00,,,0.00,LWC V2.10 B1702,2013-06-03 04:16:00,
2013-06-03 00:21:00,64.0,61.6,29.87,SSW,202,1.0,5.0,92,0.00,,,0.00,LWC V2.10 B1702,2013-06-03 04:21:00,
2013-06-03 00:26:00,63.9,61.5,29.87,WSW,242,1.0,4.0,92,0.00,,,0.01,LWC V2.10 B1702,2013-06-03 04:26:00,
2013-06-03 00:31:00,63.8,61.4,29.87,SW,234,3.0,3.0,92,0.00,,,0.01,LWC V2.10 B1702,2013-06-03 04:31:00,
2013-06-03 00:36:00,63.8,61.4,29.87,WSW,247,2.0,7.0,92,0.00,,,0.01,LWC V2.10 B1702,2013-06-03 04:36:00,
2013-06-03 00:41:00,63.7,61.3,29.87,SSW,209,2.0,3.0,92,0.00,,,0.01,LWC V2.10 B1702,2013-06-03 04:41:00,
2013-06-03 00:46:00,63.7,61.3,29.86,SW,217,1.0,3.0,92,0.00,,,0.01,LWC V2.10 B1702,2013-06-03 04:46:00,
2013-06-03 00:51:00,63.8,61.4,29.86,WSW,240,0.0,4.0,92,0.00,,,0.01,LWC V2.10 B1702,2013-06-03 04:51:00,
2013-06-03 00:56:00,63.8,61.4,29.86,West,264,0.0,5.0,92,0.00,,,0.01,LWC V2.10 B1702,2013-06-03 04:56:00,
2013-06-03 01:01:00,63.8,61.4,29.86,WSW,246,0.0,5.0,92,0.00,,,0.01,LWC V2.10 B1702,2013-06-03 05:01:00,
2013-06-03 01:06:00,63.8,61.7,29.87,SW,216,2.0,3.0,93,0.00,,,0.01,LWC V2.10 B1702,2013-06-03 05:06:00,
2013-06-03 01:11:00,63.9,61.8,29.86,SSW,201,0.0,2.0,93,0.00,,,0.01,LWC V2.10 B1702,2013-06-03 05:11:00,
2013-06-03 01:16:00,63.9,61.8,29.86,SSW,200,3.0,4.0,93,0.00,,,0.01,LWC V2.10 B1702,2013-06-03 05:16:00,
2013-06-03 01:21:00,63.9,61.8,29.86,WSW,240,3.0,5.0,93,0.00,,,0.01,LWC V2.10 B1702,2013-06-03 05:21:00,
2013-06-03 01:26:00,63.9,61.8,29.86,WSW,256,3.0,4.0,93,0.00,,,0.01,LWC V2.10 B1702,2013-06-03 05:26:00,
2013-06-03 01:31:00,63.9,61.8,29.86,WSW,249,1.0,5.0,93,0.00,,,0.01,LWC V2.10 B1702,2013-06-03 05:31:00,
2013-06-03 01:36:00,63.9,61.8,29.86,WSW,250,1.0,5.0,93,0.00,,,0.01,LWC V2.10 B1702,2013-06-03 05:36:00,
2013-06-03 01:41:00,63.8,61.7,29.86,SW,219,1.0,5.0,93,0.00,,,0.01,LWC V2.10 B1702,2013-06-03 05:41:00,
2013-06-03 01:46:00,63.8,61.7,29.86,NNE,30,3.0,4.0,93,0.00,,,0.01,LWC V2.10 B1702,2013-06-03 05:46:00,
2013-06-03 01:51:00,63.7,61.6,29.86,South,189,2.0,6.0,93,0.00,,,0.01,LWC V2.10 B1702,2013-06-03 05:51:00,
2013-06-03 01:56:00,63.7,61.6,29.85,West,264,1.0,3.0,93,0.00,,,0.01,LWC V2.10 B1702,2013-06-03 05:56:00,
2013-06-03 02:01:00,63.7,61.6,29.85,West,273,2.0,2.0,93,0.00,,,0.01,LWC V2.10 B1702,2013-06-03 06:01:00,
2013-06-03 02:06:00,63.6,61.5,29.85,WNW,293,2.0,4.0,93,0.00,,,0.01,LWC V2.10 B1702,2013-06-03 06:06:00,
2013-06-03 02:11:00,63.6,61.5,29.85,West,277,2.0,4.0,93,0.00,,,0.01,LWC V2.10 B1702,2013-06-03 06:11:00,
2013-06-03 02:16:00,63.6,61.5,29.85,West,266,3.0,3.0,93,0.00,,,0.01,LWC V2.10 B1702,2013-06-03 06:16:00,
2013-06-03 02:21:00,63.5,61.4,29.85,WSW,257,2.0,4.0,93,0.00,,,0.01,LWC V2.10 B1702,2013-06-03 06:21:00,
2013-06-03 02:26:00,63.5,61.4,29.85,WSW,249,0.0,3.0,93,0.00,,,0.01,LWC V2.10 B1702,2013-06-03 06:26:00,
2013-06-03 02:31:00,63.5,61.4,29.85,SW,215,1.0,4.0,93,0.00,,,0.01,LWC V2.10 B1702,2013-06-03 06:31:00,
2013-06-03 02:36:00,63.5,61.4,29.84,WSW,242,0.0,4.0,93,0.00,,,0.01,LWC V2.10 B1702,2013-06-03 06:36:00,
2013-06-03 02:41:00,63.5,61.4,29.84,WSW,241,2.0,3.0,93,0.00,,,0.01,LWC V2.10 B1702,2013-06-03 06:41:00,
2013-06-03 02:46:00,63.5,61.4,29.85,WSW,253,3.0,5.0,93,0.00,,,0.01,LWC V2.10 B1702,2013-06-03 06:46:00,
2013-06-03 02:51:00,63.4,61.3,29.84,South,179,0.0,4.0,93,0.00,,,0.01,LWC V2.10 B1702,2013-06-03 06:51:00,
2013-06-03 02:56:00,63.4,61.3,29.84,SW,223,2.0,5.0,93,0.00,,,0.02,LWC V2.10 B1702,2013-06-03 06:56:00,
2013-06-03 03:01:00,63.4,61.3,29.84,WSW,238,1.0,4.0,93,0.08,,,0.03,LWC V2.10 B1702,2013-06-03 07:01:00,
2013-06-03 03:06:00,63.3,61.2,29.83,WSW,239,0.0,3.0,93,0.08,,,0.03,LWC V2.10 B1702,2013-06-03 07:06:00,
2013-06-03 03:11:00,63.2,61.1,29.83,SW,232,1.0,11.0,93,0.07,,,0.04,LWC V2.10 B1702,2013-06-03 07:11:00,
2013-06-03 03:16:00,63.2,61.1,29.83,SSW,208,6.0,6.0,93,0.08,,,0.05,LWC V2.10 B1702,2013-06-03 07:16:00,
2013-06-03 03:21:00,63.2,61.1,29.83,WNW,300,1.0,11.0,93,0.08,,,0.05,LWC V2.10 B1702,2013-06-03 07:21:00,
2013-06-03 03:26:00,63.1,61.0,29.83,SSE,163,4.0,7.0,93,0.06,,,0.06,LWC V2.10 B1702,2013-06-03 07:26:00,
2013-06-03 03:31:00,63.2,61.1,29.83,WSW,244,2.0,5.0,93,0.06,,,0.06,LWC V2.10 B1702,2013-06-03 07:31:00,
2013-06-03 03:36:00,63.3,61.2,29.83,WSW,253,2.0,5.0,93,0.06,,,0.07,LWC V2.10 B1702,2013-06-03 07:36:00,
2013-06-03 03:41:00,63.4,61.3,29.83,West,264,5.0,5.0,93,0.06,,,0.07,LWC V2.10 B1702,2013-06-03 07:41:00,
2013-06-03 03:46:00,63.5,61.4,29.83,WSW,254,0.0,4.0,93,0.05,,,0.07,LWC V2.10 B1702,2013-06-03 07:46:00,
2013-06-03 03:51:00,63.6,61.8,29.84,SSW,194,1.0,4.0,94,0.00,,,0.07,LWC V2.10 B1702,2013-06-03 07:51:00,
2013-06-03 03:56:00,63.8,62.0,29.84,SW,229,1.0,6.0,94,0.00,,,0.08,LWC V2.10 B1702,2013-06-03 07:56:00,
2013-06-03 04:01:00,64.1,62.3,29.85,WNW,286,4.0,7.0,94,0.00,,,0.08,LWC V2.10 B1702,2013-06-03 08:01:00,
2013-06-03 04:06:00,64.3,62.5,29.84,West,263,1.0,3.0,94,0.06,,,0.09,LWC V2.10 B1702,2013-06-03 08:06:00,
2013-06-03 04:11:00,64.4,62.6,29.84,SW,235,3.0,3.0,94,0.07,,,0.10,LWC V2.10 B1702,2013-06-03 08:11:00,
2013-06-03 04:16:00,64.3,62.5,29.85,West,269,1.0,4.0,94,0.07,,,0.10,LWC V2.10 B1702,2013-06-03 08:16:00,
2013-06-03 04:21:00,64.2,62.4,29.85,WNW,286,1.0,4.0,94,0.08,,,0.11,LWC V2.10 B1702,2013-06-03 08:21:00,
2013-06-03 04:26:00,64.0,62.2,29.85,WNW,297,3.0,4.0,94,0.08,,,0.12,LWC V2.10 B1702,2013-06-03 08:26:00,
2013-06-03 04:31:00,63.9,61.8,29.86,West,263,3.0,3.0,93,0.10,,,0.12,LWC V2.10 B1702,2013-06-03 08:31:00,
2013-06-03 04:36:00,63.8,61.7,29.86,West,278,4.0,6.0,93,0.10,,,0.13,LWC V2.10 B1702,2013-06-03 08:36:00,
2013-06-03 04:41:00,63.6,61.5,29.85,West,261,1.0,5.0,93,0.06,,,0.14,LWC V2.10 B1702,2013-06-03 08:41:00,
2013-06-03 04:46:00,63.6,61.5,29.85,West,275,3.0,4.0,93,0.06,,,0.14,LWC V2.10 B1702,2013-06-03 08:46:00,
2013-06-03 04:51:00,63.5,61.7,29.85,WSW,247,2.0,5.0,94,0.06,,,0.14,LWC V2.10 B1702,2013-06-03 08:51:00,
2013-06-03 04:56:00,63.5,61.7,29.85,NW,313,0.0,1.0,94,0.04,,,0.15,LWC V2.10 B1702,2013-06-03 08:56:00,
2013-06-03 05:01:00,63.5,61.7,29.85,West,281,0.0,1.0,94,0.04,,,0.15,LWC V2.10 B1702,2013-06-03 09:01:00,
2013-06-03 05:06:00,63.5,61.7,29.85,SSE,159,5.0,5.0,94,0.06,,,0.16,LWC V2.10 B1702,2013-06-03 09:06:00,
2013-06-03 05:11:00,63.4,61.6,29.85,North,355,3.0,3.0,94,0.06,,,0.16,LWC V2.10 B1702,2013-06-03 09:11:00,
2013-06-03 05:16:00,63.4,61.6,29.85,WNW,284,1.0,3.0,94,0.07,,,0.17,LWC V2.10 B1702,2013-06-03 09:16:00,
2013-06-03 05:21:00,63.4,61.6,29.85,NW,315,1.0,1.0,94,0.07,,,0.17,LWC V2.10 B1702,2013-06-03 09:21:00,
2013-06-03 05:26:00,63.4,61.6,29.85,SW,217,0.0,1.0,94,0.06,,,0.18,LWC V2.10 B1702,2013-06-03 09:26:00,
2013-06-03 05:31:00,63.4,61.6,29.85,WSW,247,1.0,1.0,94,0.06,,,0.18,LWC V2.10 B1702,2013-06-03 09:31:00,
2013-06-03 05:36:00,63.4,61.6,29.85,WSW,248,1.0,4.0,94,0.07,,,0.19,LWC V2.10 B1702,2013-06-03 09:36:00,
2013-06-03 05:41:00,63.6,61.8,29.85,SW,226,1.0,2.0,94,0.07,,,0.20,LWC V2.10 B1702,2013-06-03 09:41:00,
2013-06-03 05:46:00,63.9,62.1,29.85,West,281,2.0,3.0,94,0.07,,,0.20,LWC V2.10 B1702,2013-06-03 09:46:00,
2013-06-03 05:51:00,64.0,62.2,29.85,North,349,0.0,3.0,94,0.08,,,0.21,LWC V2.10 B1702,2013-06-03 09:51:00,
2013-06-03 05:56:00,64.1,62.3,29.85,West,263,3.0,4.0,94,0.07,,,0.22,LWC V2.10 B1702,2013-06-03 09:56:00,
2013-06-03 06:01:00,64.2,62.4,29.84,WNW,292,5.0,10.0,94,0.07,,,0.22,LWC V2.10 B1702,2013-06-03 10:01:00,
2013-06-03 06:06:00,64.3,62.5,29.85,NNW,341,4.0,5.0,94,0.09,,,0.23,LWC V2.10 B1702,2013-06-03 10:06:00,
2013-06-03 06:11:00,64.2,62.4,29.84,West,267,1.0,2.0,94,0.07,,,0.24,LWC V2.10 B1702,2013-06-03 10:11:00,
2013-06-03 06:16:00,64.1,62.3,29.85,West,273,3.0,4.0,94,0.07,,,0.24,LWC V2.10 B1702,2013-06-03 10:16:00,
2013-06-03 06:21:00,64.1,62.3,29.85,NW,319,1.0,11.0,94,0.07,,,0.25,LWC V2.10 B1702,2013-06-03 10:21:00,
2013-06-03 06:26:00,64.0,62.2,29.85,NNW,340,4.0,4.0,94,0.07,,,0.25,LWC V2.10 B1702,2013-06-03 10:26:00,
2013-06-03 06:31:00,64.0,62.2,29.85,NW,314,3.0,4.0,94,0.05,,,0.25,LWC V2.10 B1702,2013-06-03 10:31:00,
2013-06-03 06:36:00,63.9,62.1,29.85,WSW,249,2.0,5.0,94,0.04,,,0.25,LWC V2.10 B1702,2013-06-03 10:36:00,
2013-06-03 06:41:00,63.8,62.0,29.85,West,271,2.0,5.0,94,0.00,,,0.26,LWC V2.10 B1702,2013-06-03 10:41:00,
2013-06-03 06:46:00,63.8,62.0,29.85,West,261,1.0,3.0,94,0.00,,,0.26,LWC V2.10 B1702,2013-06-03 10:46:00,
2013-06-03 06:51:00,63.8,62.0,29.85,WSW,256,3.0,5.0,94,0.07,,,0.27,LWC V2.10 B1702,2013-06-03 10:51:00,
2013-06-03 06:56:00,63.8,62.0,29.85,North,5,1.0,3.0,94,0.07,,,0.28,LWC V2.10 B1702,2013-06-03 10:56:00,
2013-06-03 07:01:00,63.8,62.0,29.85,North,0,1.0,6.0,94,0.07,,,0.28,LWC V2.10 B1702,2013-06-03 11:01:00,
2013-06-03 07:06:00,63.8,62.0,29.85,WSW,252,0.0,3.0,94,0.07,,,0.29,LWC V2.10 B1702,2013-06-03 11:06:00,
2013-06-03 07:11:00,63.8,62.0,29.85,South,175,2.0,3.0,94,0.07,,,0.29,LWC V2.10 B1702,2013-06-03 11:11:00,
2013-06-03 07:16:00,63.8,62.0,29.86,West,262,2.0,5.0,94,0.05,,,0.29,LWC V2.10 B1702,2013-06-03 11:16:00,
2013-06-03 07:21:00,63.7,61.9,29.86,WSW,254,2.0,5.0,94,0.05,,,0.30,LWC V2.10 B1702,2013-06-03 11:21:00,
2013-06-03 07:26:00,63.8,62.0,29.86,WSW,251,6.0,6.0,94,0.05,,,0.30,LWC V2.10 B1702,2013-06-03 11:26:00,
2013-06-03 07:31:00,63.8,62.0,29.86,North,350,1.0,4.0,94,0.04,,,0.30,LWC V2.10 B1702,2013-06-03 11:31:00,
2013-06-03 07:36:00,63.7,61.9,29.86,West,279,2.0,2.0,94,0.04,,,0.31,LWC V2.10 B1702,2013-06-03 11:36:00,
2013-06-03 07:41:00,63.7,61.9,29.86,WNW,283,3.0,3.0,94,0.04,,,0.31,LWC V2.10 B1702,2013-06-03 11:41:00,
2013-06-03 07:46:00,63.6,61.8,29.86,WNW,296,0.0,2.0,94,0.04,,,0.31,LWC V2.10 B1702,2013-06-03 11:46:00,
2013-06-03 07:51:00,63.6,61.8,29.86,West,263,1.0,5.0,94,0.00,,,0.31,LWC V2.10 B1702,2013-06-03 11:51:00,
2013-06-03 07:56:00,63.6,61.8,29.86,WNW,287,1.0,5.0,94,0.00,,,0.31,LWC V2.10 B1702,2013-06-03 11:56:00,
2013-06-03 08:01:00,63.7,61.9,29.86,WSW,258,1.0,1.0,94,0.00,,,0.31,LWC V2.10 B1702,2013-06-03 12:01:00,
2013-06-03 08:06:00,63.8,62.0,29.86,SW,215,0.0,4.0,94,0.00,,,0.31,LWC V2.10 B1702,2013-06-03 12:06:00,
2013-06-03 08:11:00,63.9,62.1,29.86,West,278,1.0,5.0,94,0.00,,,0.31,LWC V2.10 B1702,2013-06-03 12:11:00,
2013-06-03 08:16:00,63.9,62.1,29.86,SSW,207,0.0,1.0,94,0.00,,,0.31,LWC V2.10 B1702,2013-06-03 12:16:00,
2013-06-03 08:21:00,64.0,62.2,29.86,WSW,248,0.0,4.0,94,0.00,,,0.31,LWC V2.10 B1702,2013-06-03 12:21:00,
2013-06-03 08:26:00,64.0,62.2,29.86,NW,323,0.0,0.0,94,0.00,,,0.31,LWC V2.10 B1702,2013-06-03 12:26:00,
2013-06-03 08:31:00,64.0,62.2,29.86,WSW,245,1.0,1.0,94,0.00,,,0.31,LWC V2.10 B1702,2013-06-03 12:31:00,
2013-06-03 08:36:00,63.9,62.1,29.86,WNW,290,0.0,0.0,94,0.00,,,0.31,LWC V2.10 B1702,2013-06-03 12:36:00,
2013-06-03 08:41:00,63.9,62.1,29.86,SSW,213,1.0,2.0,94,0.00,,,0.31,LWC V2.10 B1702,2013-06-03 12:41:00,
2013-06-03 08:46:00,63.9,62.1,29.86,North,10,1.0,2.0,94,0.00,,,0.31,LWC V2.10 B1702,2013-06-03 12:46:00,
2013-06-03 08:51:00,63.9,62.1,29.86,WSW,245,0.0,0.0,94,0.00,,,0.31,LWC V2.10 B1702,2013-06-03 12:51:00,
2013-06-03 08:56:00,63.9,62.1,29.86,West,264,0.0,4.0,94,0.00,,,0.31,LWC V2.10 B1702,2013-06-03 12:56:00,
2013-06-03 09:01:00,63.7,61.9,29.86,WSW,240,2.0,4.0,94,0.00,,,0.31,LWC V2.10 B1702,2013-06-03 13:01:00,
2013-06-03 09:06:00,63.6,61.8,29.86,WSW,242,1.0,3.0,94,0.00,,,0.31,LWC V2.10 B1702,2013-06-03 13:06:00,
2013-06-03 09:11:00,63.7,61.9,29.85,WSW,254,0.0,1.0,94,0.00,,,0.31,LWC V2.10 B1702,2013-06-03 13:11:00,
2013-06-03 09:16:00,63.7,61.9,29.86,South,181,1.0,2.0,94,0.00,,,0.31,LWC V2.10 B1702,2013-06-03 13:16:00,
2013-06-03 09:21:00,63.8,62.0,29.86,NNW,341,0.0,5.0,94,0.00,,,0.32,LWC V2.10 B1702,2013-06-03 13:21:00,
2013-06-03 09:26:00,63.8,62.0,29.86,NW,317,1.0,3.0,94,0.00,,,0.32,LWC V2.10 B1702,2013-06-03 13:26:00,
2013-06-03 09:31:00,63.7,61.9,29.86,WSW,252,0.0,0.0,94,0.00,,,0.32,LWC V2.10 B1702,2013-06-03 13:31:00,
2013-06-03 09:36:00,63.8,62.0,29.86,NNW,330,0.0,2.0,94,0.00,,,0.32,LWC V2.10 B1702,2013-06-03 13:36:00,
2013-06-03 09:41:00,63.8,62.0,29.85,WSW,252,0.0,2.0,94,0.00,,,0.33,LWC V2.10 B1702,2013-06-03 13:41:00,
2013-06-03 09:46:00,63.9,62.1,29.85,WSW,251,0.0,0.0,94,0.00,,,0.33,LWC V2.10 B1702,2013-06-03 13:46:00,
2013-06-03 09:51:00,63.9,62.1,29.85,West,281,0.0,0.0,94,0.00,,,0.33,LWC V2.10 B1702,2013-06-03 13:51:00,
2013-06-03 09:56:00,64.0,62.2,29.85,South,184,0.0,0.0,94,0.04,,,0.34,LWC V2.10 B1702,2013-06-03 13:56:00,
2013-06-03 10:01:00,64.0,62.2,29.85,WSW,249,2.0,3.0,94,0.07,,,0.35,LWC V2.10 B1702,2013-06-03 14:01:00,
2013-06-03 10:06:00,63.8,62.0,29.86,SW,220,0.0,2.0,94,0.07,,,0.35,LWC V2.10 B1702,2013-06-03 14:06:00,
2013-06-03 10:11:00,63.6,61.8,29.85,West,259,1.0,2.0,94,1.21,,,0.58,LWC V2.10 B1702,2013-06-03 14:11:00,
2013-06-03 10:16:00,63.4,61.6,29.85,SW,226,0.0,2.0,94,0.35,,,0.63,LWC V2.10 B1702,2013-06-03 14:16:00,
2013-06-03 10:21:00,63.3,61.5,29.85,NNW,339,2.0,3.0,94,1.17,,,0.69,LWC V2.10 B1702,2013-06-03 14:21:00,
2013-06-03 10:26:00,63.4,61.6,29.85,NW,309,1.0,2.0,94,0.78,,,0.76,LWC V2.10 B1702,2013-06-03 14:26:00,
2013-06-03 10:31:00,63.4,61.6,29.85,SSW,196,0.0,1.0,94,0.30,,,0.80,LWC V2.10 B1702,2013-06-03 14:31:00,
2013-06-03 10:36:00,63.3,61.5,29.85,SW,231,2.0,3.0,94,0.57,,,0.86,LWC V2.10 B1702,2013-06-03 14:36:00,
2013-06-03 10:41:00,63.1,61.3,29.85,SW,236,2.0,6.0,94,0.42,,,0.89,LWC V2.10 B1702,2013-06-03 14:41:00,
2013-06-03 10:46:00,63.1,61.3,29.85,WSW,244,8.0,8.0,94,0.14,,,0.90,LWC V2.10 B1702,2013-06-03 14:46:00,
2013-06-03 10:51:00,63.1,61.3,29.85,WSW,237,1.0,6.0,94,0.08,,,0.90,LWC V2.10 B1702,2013-06-03 14:51:00,
2013-06-03 10:56:00,63.2,61.4,29.84,WNW,285,1.0,4.0,94,0.07,,,0.91,LWC V2.10 B1702,2013-06-03 14:56:00,
2013-06-03 11:01:00,63.2,61.4,29.84,SW,236,2.0,3.0,94,0.07,,,0.91,LWC V2.10 B1702,2013-06-03 15:01:00,
2013-06-03 11:06:00,63.3,61.5,29.84,West,273,1.0,1.0,94,0.04,,,0.91,LWC V2.10 B1702,2013-06-03 15:06:00,
2013-06-03 11:11:00,63.2,61.4,29.84,SW,229,0.0,2.0,94,0.04,,,0.92,LWC V2.10 B1702,2013-06-03 15:11:00,
2013-06-03 11:17:00,63.2,61.4,29.84,NW,309,2.0,3.0,94,0.04,,,0.92,LWC V2.10 B1702,2013-06-03 15:17:00,
2013-06-03 11:22:00,63.2,61.4,29.84,NW,316,2.0,7.0,94,0.07,,,0.93,LWC V2.10 B1702,2013-06-03 15:22:00,
2013-06-03 11:27:00,63.3,61.5,29.84,West,281,0.0,3.0,94,0.07,,,0.93,LWC V2.10 B1702,2013-06-03 15:27:00,
2013-06-03 11:32:00,63.2,61.4,29.84,West,278,0.0,0.0,94,0.04,,,0.93,LWC V2.10 B1702,2013-06-03 15:32:00,
2013-06-03 11:36:00,63.1,61.3,29.84,WNW,283,0.0,3.0,94,0.00,,,0.93,LWC V2.10 B1702,2013-06-03 15:36:00,
2013-06-03 11:41:00,63.1,61.3,29.84,WNW,289,1.0,1.0,94,0.24,,,0.95,LWC V2.10 B1702,2013-06-03 15:41:00,
2013-06-03 11:47:00,63.0,61.2,29.84,West,269,0.0,1.0,94,0.56,,,1.01,LWC V2.10 B1702,2013-06-03 15:47:00,
2013-06-03 11:52:00,63.0,61.2,29.84,NW,320,1.0,9.0,94,0.71,,,1.08,LWC V2.10 B1702,2013-06-03 15:52:00,
2013-06-03 11:57:00,62.9,61.1,29.84,WNW,303,1.0,6.0,94,0.99,,,1.15,LWC V2.10 B1702,2013-06-03 15:57:00,
2013-06-03 12:02:00,62.9,61.1,29.84,WNW,298,0.0,1.0,94,0.48,,,1.21,LWC V2.10 B1702,2013-06-03 16:02:00,
2013-06-03 12:07:00,63.0,61.2,29.84,NW,309,2.0,8.0,94,0.21,,,1.23,LWC V2.10 B1702,2013-06-03 16:07:00,
2013-06-03 12:12:00,63.2,61.4,29.84,West,271,3.0,5.0,94,0.10,,,1.24,LWC V2.10 B1702,2013-06-03 16:12:00,
2013-06-03 12:17:00,63.4,61.9,29.84,WSW,257,3.0,4.0,95,0.14,,,1.25,LWC V2.10 B1702,2013-06-03 16:17:00,
2013-06-03 12:22:00,63.6,62.1,29.84,WSW,244,0.0,2.0,95,0.07,,,1.26,LWC V2.10 B1702,2013-06-03 16:22:00,
2013-06-03 12:27:00,63.6,62.1,29.85,WSW,250,1.0,5.0,95,0.07,,,1.26,LWC V2.10 B1702,2013-06-03 16:27:00,
2013-06-03 12:32:00,63.6,62.1,29.85,West,278,1.0,3.0,95,0.06,,,1.26,LWC V2.10 B1702,2013-06-03 16:32:00,
2013-06-03 12:37:00,63.5,62.0,29.84,SW,229,3.0,3.0,95,0.04,,,1.26,LWC V2.10 B1702,2013-06-03 16:37:00,
2013-06-03 12:42:00,63.4,61.6,29.84,WSW,239,2.0,4.0,94,0.04,,,1.27,LWC V2.10 B1702,2013-06-03 16:42:00,
2013-06-03 12:47:00,63.3,61.5,29.84,SW,234,2.0,7.0,94,0.04,,,1.27,LWC V2.10 B1702,2013-06-03 16:47:00,
2013-06-03 12:52:00,63.4,61.6,29.84,West,278,0.0,6.0,94,0.04,,,1.27,LWC V2.10 B1702,2013-06-03 16:52:00,
2013-06-03 12:57:00,63.7,62.2,29.84,WNW,298,1.0,3.0,95,0.00,,,1.27,LWC V2.10 B1702,2013-06-03 16:57:00,
2013-06-03 13:02:00,64.0,62.5,29.84,WSW,257,1.0,2.0,95,0.00,,,1.27,LWC V2.10 B1702,2013-06-03 17:02:00,
2013-06-03 13:07:00,64.1,62.6,29.84,WNW,287,0.0,4.0,95,0.00,,,1.27,LWC V2.10 B1702,2013-06-03 17:07:00,
2013-06-03 13:12:00,63.8,62.3,29.84,NW,312,0.0,6.0,95,0.00,,,1.27,LWC V2.10 B1702,2013-06-03 17:12:00,
2013-06-03 13:17:00,63.6,62.1,29.84,West,263,3.0,7.0,95,0.00,,,1.27,LWC V2.10 B1702,2013-06-03 17:17:00,
2013-06-03 13:22:00,63.5,62.0,29.84,WSW,246,1.0,3.0,95,0.00,,,1.27,LWC V2.10 B1702,2013-06-03 17:22:00,
2013-06-03 13:27:00,63.3,61.5,29.84,West,281,2.0,2.0,94,0.00,,,1.28,LWC V2.10 B1702,2013-06-03 17:27:00,
2013-06-03 13:32:00,63.1,61.3,29.84,WSW,256,3.0,6.0,94,0.00,,,1.28,LWC V2.10 B1702,2013-06-03 17:32:00,
2013-06-03 13:37:00,63.1,61.3,29.84,WNW,301,0.0,4.0,94,0.17,,,1.30,LWC V2.10 B1702,2013-06-03 17:37:00,
2013-06-03 13:42:00,63.0,61.2,29.84,WSW,249,0.0,3.0,94,0.48,,,1.36,LWC V2.10 B1702,2013-06-03 17:42:00,
2013-06-03 13:47:00,62.9,61.1,29.84,WSW,240,0.0,3.0,94,0.11,,,1.36,LWC V2.10 B1702,2013-06-03 17:47:00,
2013-06-03 13:52:00,63.0,61.2,29.84,WSW,252,2.0,2.0,94,0.06,,,1.36,LWC V2.10 B1702,2013-06-03 17:52:00,
2013-06-03 13:57:00,62.9,61.4,29.84,WNW,298,0.0,3.0,95,0.23,,,1.38,LWC V2.10 B1702,2013-06-03 17:57:00,
2013-06-03 14:02:00,63.0,61.5,29.84,WSW,249,0.0,2.0,95,0.17,,,1.40,LWC V2.10 B1702,2013-06-03 18:02:00,
2013-06-03 14:07:00,63.0,61.5,29.83,West,272,1.0,4.0,95,0.14,,,1.41,LWC V2.10 B1702,2013-06-03 18:07:00,
2013-06-03 14:12:00,63.0,61.5,29.83,SSW,199,0.0,3.0,95,0.24,,,1.43,LWC V2.10 B1702,2013-06-03 18:12:00,
2013-06-03 14:17:00,63.0,61.5,29.83,WSW,241,0.0,5.0,95,1.44,,,1.48,LWC V2.10 B1702,2013-06-03 18:17:00,
2013-06-03 14:22:00,63.0,61.5,29.83,SW,234,0.0,3.0,95,0.40,,,1.54,LWC V2.10 B1702,2013-06-03 18:22:00,
2013-06-03 14:27:00,63.1,61.6,29.83,WSW,238,1.0,3.0,95,0.32,,,1.56,LWC V2.10 B1702,2013-06-03 18:27:00,
2013-06-03 14:32:00,63.2,61.7,29.83,SW,236,1.0,1.0,95,0.31,,,1.59,LWC V2.10 B1702,2013-06-03 18:32:00,
2013-06-03 14:37:00,63.2,61.7,29.83,West,279,0.0,2.0,95,0.11,,,1.60,LWC V2.10 B1702,2013-06-03 18:37:00,
2013-06-03 14:42:00,63.2,61.7,29.83,WSW,239,3.0,4.0,95,0.10,,,1.61,LWC V2.10 B1702,2013-06-03 18:42:00,
2013-06-03 14:47:00,63.2,61.7,29.83,SW,232,3.0,3.0,95,0.10,,,1.61,LWC V2.10 B1702,2013-06-03 18:47:00,
2013-06-03 14:52:00,63.2,61.7,29.83,SW,223,1.0,4.0,95,0.18,,,1.63,LWC V2.10 B1702,2013-06-03 18:52:00,
2013-06-03 14:57:00,63.2,61.7,29.83,WSW,248,1.0,3.0,95,0.09,,,1.63,LWC V2.10 B1702,2013-06-03 18:57:00,
2013-06-03 15:02:00,63.0,61.5,29.83,WSW,254,0.0,4.0,95,0.08,,,1.64,LWC V2.10 B1702,2013-06-03 19:02:00,
2013-06-03 15:07:00,63.0,61.5,29.83,North,355,0.0,0.0,95,0.07,,,1.64,LWC V2.10 B1702,2013-06-03 19:07:00,
2013-06-03 15:12:00,62.9,61.4,29.83,NW,310,1.0,4.0,95,0.06,,,1.65,LWC V2.10 B1702,2013-06-03 19:12:00,
2013-06-03 15:17:00,62.9,61.4,29.83,WSW,240,3.0,6.0,95,0.10,,,1.66,LWC V2.10 B1702,2013-06-03 19:17:00,
2013-06-03 15:22:00,62.7,61.2,29.83,West,259,0.0,1.0,95,0.07,,,1.66,LWC V2.10 B1702,2013-06-03 19:22:00,
2013-06-03 15:27:00,62.7,61.2,29.83,SW,232,0.0,3.0,95,0.86,,,1.69,LWC V2.10 B1702,2013-06-03 19:27:00,
2013-06-03 15:32:00,62.7,61.2,29.83,West,260,0.0,4.0,95,0.26,,,1.74,LWC V2.10 B1702,2013-06-03 19:32:00,
2013-06-03 15:37:00,62.7,60.9,29.83,SW,223,0.0,2.0,94,0.20,,,1.76,LWC V2.10 B1702,2013-06-03 19:37:00,
2013-06-03 15:42:00,62.6,61.1,29.83,WSW,255,0.0,3.0,95,0.11,,,1.77,LWC V2.10 B1702,2013-06-03 19:42:00,
2013-06-03 15:47:00,62.6,61.1,29.83,NW,313,0.0,3.0,95,0.23,,,1.79,LWC V2.10 B1702,2013-06-03 19:47:00,
2013-06-03 15:52:00,62.6,61.1,29.83,SSW,212,0.0,0.0,95,0.10,,,1.80,LWC V2.10 B1702,2013-06-03 19:52:00,
2013-06-03 15:57:00,62.6,61.1,29.83,WNW,286,1.0,3.0,95,0.19,,,1.82,LWC V2.10 B1702,2013-06-03 19:57:00,
2013-06-03 16:02:00,62.6,61.1,29.83,WSW,238,0.0,2.0,95,0.13,,,1.83,LWC V2.10 B1702,2013-06-03 20:02:00,
2013-06-03 16:07:00,62.6,61.1,29.83,WNW,292,0.0,2.0,95,0.28,,,1.85,LWC V2.10 B1702,2013-06-03 20:07:00,
2013-06-03 16:12:00,62.6,61.1,29.83,ESE,116,0.0,3.0,95,0.24,,,1.87,LWC V2.10 B1702,2013-06-03 20:12:00,
2013-06-03 16:17:00,62.6,61.1,29.83,WNW,302,0.0,4.0,95,0.23,,,1.88,LWC V2.10 B1702,2013-06-03 20:17:00,
2013-06-03 16:22:00,62.5,61.0,29.82,West,279,0.0,2.0,95,0.13,,,1.89,LWC V2.10 B1702,2013-06-03 20:22:00,
2013-06-03 16:27:00,62.5,61.0,29.82,WNW,294,0.0,2.0,95,0.10,,,1.90,LWC V2.10 B1702,2013-06-03 20:27:00,
2013-06-03 16:30:00,62.5,61.0,29.82,West,270,0.0,1.0,95,0.10,,,1.90,LWC V2.10 B1702,2013-06-03 20:30:00,
2013-06-03 16:35:00,62.5,61.0,29.82,SSW,197,1.0,2.0,95,0.06,,,1.90,LWC V2.10 B1702,2013-06-03 20:35:00,
2013-06-03 16:40:00,62.5,61.0,29.82,WSW,246,0.0,8.0,95,0.04,,,1.91,LWC V2.10 B1702,2013-06-03 20:40:00,
2013-06-03 16:45:00,62.6,61.1,29.82,WSW,252,0.0,2.0,95,0.04,,,1.91,LWC V2.10 B1702,2013-06-03 20:45:00,
2013-06-03 16:50:00,62.7,61.2,29.82,SW,221,2.0,5.0,95,0.04,,,1.91,LWC V2.10 B1702,2013-06-03 20:50:00,
2013-06-03 16:55:00,62.8,61.3,29.82,SSW,207,3.0,4.0,95,0.04,,,1.91,LWC V2.10 B1702,2013-06-03 20:55:00,
2013-06-03 17:00:00,62.7,61.2,29.81,SW,231,3.0,3.0,95,0.00,,,1.91,LWC V2.10 B1702,2013-06-03 21:00:00,
2013-06-03 17:05:00,63.1,61.6,29.81,SW,234,0.0,4.0,95,0.00,,,1.91,LWC V2.10 B1702,2013-06-03 21:05:00,
2013-06-03 17:10:00,63.2,61.7,29.81,WSW,251,1.0,3.0,95,0.00,,,1.91,LWC V2.10 B1702,2013-06-03 21:10:00,
2013-06-03 17:15:00,63.2,61.7,29.81,WSW,244,1.0,4.0,95,0.00,,,1.91,LWC V2.10 B1702,2013-06-03 21:15:00,
2013-06-03 17:20:00,63.2,61.7,29.81,West,279,1.0,3.0,95,0.00,,,1.91,LWC V2.10 B1702,2013-06-03 21:20:00,
2013-06-03 17:25:00,63.2,61.7,29.81,West,261,2.0,3.0,95,0.00,,,1.91,LWC V2.10 B1702,2013-06-03 21:25:00,
2013-06-03 17:30:00,63.3,61.8,29.82,West,271,0.0,0.0,95,0.00,,,1.91,LWC V2.10 B1702,2013-06-03 21:30:00,
2013-06-03 17:35:00,63.2,61.7,29.81,WSW,248,1.0,2.0,95,0.00,,,1.91,LWC V2.10 B1702,2013-06-03 21:35:00,
2013-06-03 17:40:00,63.0,61.5,29.81,WSW,257,1.0,5.0,95,0.00,,,1.91,LWC V2.10 B1702,2013-06-03 21:40:00,
2013-06-03 17:45:00,62.9,61.4,29.82,WSW,253,1.0,2.0,95,0.00,,,1.91,LWC V2.10 B1702,2013-06-03 21:45:00,
2013-06-03 17:50:00,62.7,61.2,29.82,West,261,0.0,2.0,95,0.00,,,1.91,LWC V2.10 B1702,2013-06-03 21:50:00,
2013-06-03 17:55:00,62.7,61.2,29.82,WSW,243,3.0,4.0,95,0.00,,,1.91,LWC V2.10 B1702,2013-06-03 21:55:00,
2013-06-03 18:00:00,62.6,61.1,29.81,SW,233,0.0,3.0,95,0.00,,,1.91,LWC V2.10 B1702,2013-06-03 22:00:00,
2013-06-03 18:05:00,62.5,61.0,29.81,West,274,2.0,3.0,95,0.00,,,1.91,LWC V2.10 B1702,2013-06-03 22:05:00,
2013-06-03 18:10:00,62.5,61.0,29.81,SSE,153,0.0,3.0,95,0.00,,,1.91,LWC V2.10 B1702,2013-06-03 22:10:00,
2013-06-03 18:15:00,62.5,61.0,29.81,South,185,1.0,5.0,95,0.00,,,1.91,LWC V2.10 B1702,2013-06-03 22:15:00,
2013-06-03 18:20:00,62.5,61.0,29.81,NNW,344,2.0,2.0,95,0.00,,,1.91,LWC V2.10 B1702,2013-06-03 22:20:00,
2013-06-03 18:25:00,62.6,61.1,29.81,NNW,340,1.0,1.0,95,0.00,,,1.91,LWC V2.10 B1702,2013-06-03 22:25:00,
2013-06-03 18:30:00,62.7,61.2,29.81,WSW,243,0.0,4.0,95,0.00,,,1.91,LWC V2.10 B1702,2013-06-03 22:30:00,
2013-06-03 18:35:00,62.7,61.2,29.81,WSW,251,0.0,2.0,95,0.00,,,1.91,LWC V2.10 B1702,2013-06-03 22:35:00,
2013-06-03 18:40:00,62.7,61.2,29.81,WSW,256,0.0,3.0,95,0.00,,,1.91,LWC V2.10 B1702,2013-06-03 22:40:00,
2013-06-03 18:45:00,62.8,61.3,29.81,West,279,1.0,1.0,95,0.00,,,1.91,LWC V2.10 B1702,2013-06-03 22:45:00,
2013-06-03 18:50:00,62.8,61.3,29.81,West,272,0.0,0.0,95,0.00,,,1.91,LWC V2.10 B1702,2013-06-03 22:50:00,
2013-06-03 18:55:00,62.9,61.4,29.81,WNW,297,0.0,0.0,95,0.00,,,1.91,LWC V2.10 B1702,2013-06-03 22:55:00,
2013-06-03 19:00:00,63.0,61.5,29.81,West,273,0.0,0.0,95,0.00,,,1.91,LWC V2.10 B1702,2013-06-03 23:00:00,
2013-06-03 19:05:00,63.0,61.5,29.82,WNW,294,1.0,3.0,95,0.00,,,1.91,LWC V2.10 B1702,2013-06-03 23:05:00,
2013-06-03 19:10:00,62.9,61.4,29.81,West,268,1.0,2.0,95,0.00,,,1.91,LWC V2.10 B1702,2013-06-03 23:10:00,
2013-06-03 19:15:00,62.8,61.3,29.81,NNW,333,0.0,2.0,95,0.00,,,1.91,LWC V2.10 B1702,2013-06-03 23:15:00,
2013-06-03 19:20:00,62.8,61.3,29.81,West,265,1.0,3.0,95,0.00,,,1.91,LWC V2.10 B1702,2013-06-03 23:20:00,
2013-06-03 19:25:00,62.9,61.4,29.81,West,276,1.0,4.0,95,0.00,,,1.91,LWC V2.10 B1702,2013-06-03 23:25:00,
2013-06-03 19:30:00,63.0,61.5,29.82,WNW,294,0.0,2.0,95,0.00,,,1.91,LWC V2.10 B1702,2013-06-03 23:30:00,
2013-06-03 19:35:00,63.0,61.5,29.81,SSW,207,0.0,3.0,95,0.00,,,1.91,LWC V2.10 B1702,2013-06-03 23:35:00,
2013-06-03 19:40:00,63.1,61.6,29.81,SW,219,0.0,1.0,95,0.00,,,1.91,LWC V2.10 B1702,2013-06-03 23:40:00,
2013-06-03 19:45:00,63.0,61.5,29.81,SSW,198,0.0,1.0,95,0.00,,,1.91,LWC V2.10 B1702,2013-06-03 23:45:00,
2013-06-03 19:50:00,62.9,61.4,29.82,West,260,2.0,3.0,95,0.00,,,1.91,LWC V2.10 B1702,2013-06-03 23:50:00,
2013-06-03 19:55:00,62.7,61.2,29.82,South,171,0.0,1.0,95,0.00,,,1.91,LWC V2.10 B1702,2013-06-03 23:55:00,
2013-06-03 20:00:00,62.7,61.2,29.82,WSW,238,2.0,2.0,95,0.00,,,1.91,LWC V2.10 B1702,2013-06-04 00:00:00,
2013-06-03 20:05:00,62.6,61.1,29.82,SW,216,1.0,1.0,95,0.00,,,1.91,LWC V2.10 B1702,2013-06-04 00:05:00,
2013-06-03 20:10:00,62.6,61.1,29.81,SW,219,0.0,3.0,95,0.00,,,1.91,LWC V2.10 B1702,2013-06-04 00:10:00,
2013-06-03 20:15:00,62.5,61.0,29.81,WNW,284,1.0,3.0,95,0.00,,,1.91,LWC V2.10 B1702,2013-06-04 00:15:00,
2013-06-03 20:20:00,62.5,61.0,29.81,SW,219,2.0,3.0,95,0.00,,,1.91,LWC V2.10 B1702,2013-06-04 00:20:00,
2013-06-03 20:25:00,62.6,61.1,29.81,West,271,2.0,3.0,95,0.00,,,1.91,LWC V2.10 B1702,2013-06-04 00:25:00,
2013-06-03 20:30:00,62.7,61.2,29.81,West,260,0.0,2.0,95,0.00,,,1.91,LWC V2.10 B1702,2013-06-04 00:30:00,
2013-06-03 20:35:00,62.8,61.3,29.81,WSW,238,1.0,2.0,95,0.00,,,1.91,LWC V2.10 B1702,2013-06-04 00:35:00,
2013-06-03 20:40:00,62.8,61.3,29.81,West,277,0.0,3.0,95,0.00,,,1.91,LWC V2.10 B1702,2013-06-04 00:40:00,
2013-06-03 20:45:00,62.9,61.4,29.81,NW,318,2.0,2.0,95,0.00,,,1.91,LWC V2.10 B1702,2013-06-04 00:45:00,
2013-06-03 20:50:00,62.9,61.4,29.81,NNW,329,0.0,2.0,95,0.00,,,1.91,LWC V2.10 B1702,2013-06-04 00:50:00,
2013-06-03 20:55:00,62.9,61.4,29.81,West,265,1.0,3.0,95,0.00,,,1.91,LWC V2.10 B1702,2013-06-04 00:55:00,
2013-06-03 21:00:00,62.8,61.3,29.81,South,178,0.0,4.0,95,0.00,,,1.91,LWC V2.10 B1702,2013-06-04 01:00:00,
2013-06-03 21:05:00,62.8,61.3,29.81,SSW,207,0.0,2.0,95,0.00,,,1.91,LWC V2.10 B1702,2013-06-04 01:05:00,
2013-06-03 21:10:00,62.7,61.2,29.81,WNW,302,0.0,2.0,95,0.00,,,1.91,LWC V2.10 B1702,2013-06-04 01:10:00,
2013-06-03 21:15:00,62.8,61.3,29.81,WNW,287,0.0,2.0,95,0.00,,,1.91,LWC V2.10 B1702,2013-06-04 01:15:00,
2013-06-03 21:20:00,62.8,61.3,29.81,NW,305,0.0,2.0,95,0.00,,,1.91,LWC V2.10 B1702,2013-06-04 01:20:00,
2013-06-03 21:25:00,62.9,61.4,29.81,SSW,206,0.0,0.0,95,0.00,,,1.91,LWC V2.10 B1702,2013-06-04 01:25:00,
2013-06-03 21:30:00,62.9,61.4,29.81,West,271,0.0,1.0,95,0.00,,,1.91,LWC V2.10 B1702,2013-06-04 01:30:00,
2013-06-03 21:35:00,63.0,61.5,29.82,WNW,284,0.0,1.0,95,0.00,,,1.91,LWC V2.10 B1702,2013-06-04 01:35:00,
2013-06-03 21:40:00,63.0,61.5,29.81,SW,226,0.0,2.0,95,0.00,,,1.91,LWC V2.10 B1702,2013-06-04 01:40:00,
2013-06-03 21:45:00,62.9,61.4,29.82,WSW,252,0.0,0.0,95,0.00,,,1.91,LWC V2.10 B1702,2013-06-04 01:45:00,
2013-06-03 21:50:00,62.8,61.3,29.82,WNW,296,0.0,1.0,95,0.00,,,1.91,LWC V2.10 B1702,2013-06-04 01:50:00,
2013-06-03 21:55:00,62.8,61.3,29.82,WNW,296,0.0,2.0,95,0.00,,,1.91,LWC V2.10 B1702,2013-06-04 01:55:00,
2013-06-03 22:00:00,62.8,61.3,29.82,West,271,0.0,0.0,95,0.00,,,1.91,LWC V2.10 B1702,2013-06-04 02:00:00,
2013-06-03 22:05:00,62.9,61.4,29.82,West,267,0.0,2.0,95,0.00,,,1.91,LWC V2.10 B1702,2013-06-04 02:05:00,
2013-06-03 22:10:00,62.9,61.4,29.81,North,5,0.0,3.0,95,0.00,,,1.91,LWC V2.10 B1702,2013-06-04 02:10:00,
2013-06-03 22:15:00,63.0,61.5,29.81,West,269,0.0,2.0,95,0.00,,,1.91,LWC V2.10 B1702,2013-06-04 02:15:00,
2013-06-03 22:20:00,63.0,61.5,29.81,SW,221,0.0,1.0,95,0.00,,,1.91,LWC V2.10 B1702,2013-06-04 02:20:00,
2013-06-03 22:25:00,63.0,61.5,29.81,West,269,0.0,2.0,95,0.00,,,1.91,LWC V2.10 B1702,2013-06-04 02:25:00,
2013-06-03 22:30:00,63.0,61.5,29.81,WNW,294,0.0,3.0,95,0.00,,,1.91,LWC V2.10 B1702,2013-06-04 02:30:00,
2013-06-03 22:35:00,62.9,61.4,29.81,West,259,0.0,2.0,95,0.00,,,1.91,LWC V2.10 B1702,2013-06-04 02:35:00,
2013-06-03 22:40:00,62.9,61.4,29.81,West,275,0.0,1.0,95,0.00,,,1.91,LWC V2.10 B1702,2013-06-04 02:40:00,
2013-06-03 22:45:00,62.9,61.4,29.82,West,275,0.0,0.0,95,0.00,,,1.91,LWC V2.10 B1702,2013-06-04 02:45:00,
2013-06-03 22:50:00,62.8,61.3,29.82,NNW,340,0.0,0.0,95,0.00,,,1.91,LWC V2.10 B1702,2013-06-04 02:50:00,
2013-06-03 22:55:00,62.8,61.3,29.81,NW,324,0.0,0.0,95,0.00,,,1.91,LWC V2.10 B1702,2013-06-04 02:55:00,
2013-06-03 23:00:00,62.7,61.2,29.81,NW,324,0.0,0.0,95,0.00,,,1.91,LWC V2.10 B1702,2013-06-04 03:00:00,
2013-06-03 23:05:00,62.6,61.1,29.80,North,0,0.0,2.0,95,0.00,,,1.91,LWC V2.10 B1702,2013-06-04 03:05:00,
2013-06-03 23:10:00,62.5,61.0,29.80,North,0,0.0,1.0,95,0.00,,,1.91,LWC V2.10 B1702,2013-06-04 03:10:00,
2013-06-03 23:15:00,62.4,60.9,29.80,NW,324,0.0,0.0,95,0.00,,,1.91,LWC V2.10 B1702,2013-06-04 03:15:00,
2013-06-03 23:20:00,62.3,60.8,29.80,SW,216,0.0,0.0,95,0.00,,,1.91,LWC V2.10 B1702,2013-06-04 03:20:00,
2013-06-03 23:25:00,62.2,60.7,29.80,WNW,293,0.0,2.0,95,0.00,,,1.91,LWC V2.10 B1702,2013-06-04 03:25:00,
2013-06-03 23:30:00,62.1,60.6,29.79,West,278,0.0,3.0,95,0.00,,,1.91,LWC V2.10 B1702,2013-06-04 03:30:00,
2013-06-03 23:35:00,62.0,60.5,29.80,NNW,332,0.0,0.0,95,0.00,,,1.91,LWC V2.10 B1702,2013-06-04 03:35:00,
2013-06-03 23:40:00,62.0,60.5,29.80,WNW,287,0.0,3.0,95,0.00,,,1.91,LWC V2.10 B1702,2013-06-04 03:40:00,
2013-06-03 23:45:00,62.0,60.5,29.80,WNW,287,0.0,0.0,95,0.00,,,1.91,LWC V2.10 B1702,2013-06-04 03:45:00,
2013-06-03 23:50:00,62.0,60.5,29.80,WNW,282,0.0,2.0,95,0.00,,,1.91,LWC V2.10 B1702,2013-06-04 03:50:00,
2013-06-03 23:55:00,61.9,60.4,29.80,West,264,1.0,3.0,95,0.00,,,1.91,LWC V2.10 B1702,2013-06-04 03:55:00,